Ana Sayfa
METAR-TAF:

METAR-TAF

Havaalanları :

East Hampton Airport

East Hampton, New York, Amerika Birleşik Devletleri

Enlem: 40-57-34N, Boylam: 072-15-07W, yükseklik: 17 m

Güncel hava durumu gözlemi

Rapor saat 20:55 UTC de 19 dakika önce yapıldı.
Sakin rüzgar
Sıcaklık 15°C
Nem 41%
Basınç 1019 hPa
Görüş mesafesi: 16.1 km
Açık gökyüzü

METAR: KHTO 152055Z AUTO 00000KT 10SM CLR 15/02 A3009 RMK AO2 T01450022

Saat: 17:14 (21:14 UTC)


TAF: eksik

4.000'den fazla havaalanı için hava durumu gözlemleri ve tahminleri (METAR ve TAF raporları).

Kullanılabilir istasyonlar harita üzerinde sarı ve kırmızı noktalarla gösterilir.

İstasyonun adını görmek için fareyi noktanın üzerinde gezdirin.

Sonrasında hava gözlem ve tahminlerini görmek için tıklayın.

Haritayı değiştirmek için: yaklaştırmak için siyah artı işaretli yeşil düğmeye ve uzaklaştırmak için de eksi işaretli düğmeye hızla tıklayın; bitişik haritalar için yeşil okları kullanın.


METAR-TAF: